Date String (YYYY-MM-DD hh:mm:ss) UTC,Instrument flags,absolute air pressure of the measurement (hPa),sample flow rate (lpm),inlet stack bypass flow (lpm),air temperature of the measurement (°C),ambient temperature measured by the external sensor (°C),aerosol sample conditioner tube jacket temperature (°C),OPC LED temperature (°C),internal box temperature (°C),relative humidity of the measurement (%),span deviation,mass concentration of particles derived from Lorenz-Mie calculation of OPC scattering (μg/m³),mass concentration of particles derived from Lorenz-Mie calculation of OPC scattering (μg/m³),mass concentration of particles derived from Lorenz-Mie calculation of OPC scattering (μg/m³)
DateTimeUTC,F1_M11,P_M11,Q1_M11,Q2_M11,T1_M11,T2_M11,T3_M11,T4_M11,T5_M11,U1_M11,ZSPAN_M11,X0_M11,X2_M11,X1_M11
2024-04-20 09:00:00,SystemResetWarning,0835.9,5.00,000.00,019.1,018.5,000.0,027.6,020.8,022.8,0000.0,0009.00,0006.11,0005.59
2024-04-20 09:01:00,SystemResetWarning,0835.9,4.98,000.00,019.1,018.5,000.0,027.6,020.8,022.8,0000.0,0008.98,0006.09,0005.58
2024-04-20 09:02:00,SystemResetWarning,0835.9,5.00,000.00,019.1,018.5,000.0,027.6,020.8,022.8,0000.0,0009.01,0006.09,0005.56
2024-04-20 09:03:00,SystemResetWarning,0835.9,5.01,000.00,019.1,018.5,000.0,027.6,020.8,022.8,0000.0,0009.04,0006.12,0005.56
2024-04-20 09:04:00,SystemResetWarning,0835.9,5.01,000.00,019.1,018.5,000.0,027.6,020.8,022.8,0000.0,0008.99,0006.11,0005.55
2024-04-20 09:05:00,SystemResetWarning,0835.9,4.99,000.00,019.1,018.5,000.0,027.6,020.8,022.8,0000.0,0009.00,0006.12,0005.54
2024-04-20 09:06:00,SystemResetWarning,0835.9,4.99,000.00,019.1,018.5,000.0,027.6,020.8,022.8,0000.0,0008.91,0006.09,0005.54
2024-04-20 09:07:00,SystemResetWarning,0835.9,5.00,000.00,019.1,018.5,000.0,027.6,020.8,022.8,0000.0,0008.93,0006.09,0005.53
2024-04-20 09:08:00,SystemResetWarning,0836.0,5.00,000.00,019.1,018.5,000.0,027.6,020.8,022.8,0000.0,0008.81,0006.08,0005.54
2024-04-20 09:09:00,SystemResetWarning,0835.9,5.00,000.00,019.1,018.5,000.0,027.6,020.8,022.8,0000.0,0008.88,0006.11,0005.56
2024-04-20 09:10:00,SystemResetWarning,0835.9,5.00,000.00,019.1,018.5,000.0,027.6,020.8,022.8,0000.0,0008.94,0006.13,0005.56
2024-04-20 09:11:00,SystemResetWarning,0835.9,4.99,000.00,019.1,018.5,000.0,027.6,020.8,022.8,0000.0,0008.93,0006.13,0005.57
2024-04-20 09:12:00,SystemResetWarning,0835.9,5.00,000.00,019.1,018.5,000.0,027.6,020.8,022.8,0000.0,0008.91,0006.13,0005.59
2024-04-20 09:13:00,SystemResetWarning,0836.0,5.00,000.00,019.1,018.5,000.0,027.6,020.8,022.8,0000.0,0008.79,0006.10,0005.61
2024-04-20 09:14:00,SystemResetWarning,0836.1,5.00,000.00,019.1,018.5,000.0,027.6,020.8,022.8,0000.0,0008.75,0006.08,0005.61
2024-04-20 09:15:00,SystemResetWarning,0836.1,5.00,000.00,019.1,018.5,000.0,027.6,020.8,022.8,-000.0,0008.83,0006.11,0005.65
2024-04-20 09:16:00,SystemResetWarning,0836.1,4.99,000.00,019.1,018.5,000.0,027.6,020.8,022.8,-000.1,0008.75,0006.10,0005.67
2024-04-20 09:17:00,SystemResetWarning,0836.1,5.00,000.00,019.1,018.5,000.0,027.6,020.8,022.7,-000.2,0008.83,0006.16,0005.71
2024-04-20 09:18:00,SystemResetWarning,0836.0,5.00,000.00,019.1,018.5,000.0,027.6,020.8,022.7,0000.2,0008.84,0006.20,0005.76
2024-04-20 09:19:00,SystemResetWarning,0836.1,5.00,000.00,019.1,018.5,000.0,027.6,020.8,022.8,-000.1,0008.86,0006.25,0005.80
2024-04-20 09:20:00,SystemResetWarning,0836.1,5.00,000.00,019.1,018.5,000.0,027.6,020.8,022.8,0000.0,0008.78,0006.24,0005.81
2024-04-20 09:21:00,SystemResetWarning,0836.1,5.00,000.00,019.1,018.5,000.0,027.6,020.8,022.7,0000.1,0008.89,0006.26,0005.82
2024-04-20 09:22:00,SystemResetWarning,0836.1,5.00,000.00,019.1,018.5,000.0,027.6,020.8,022.7,0000.7,0008.89,0006.28,0005.85
2024-04-20 09:23:00,SystemResetWarning,0836.1,5.00,000.00,019.1,018.5,000.0,027.6,020.8,022.7,0000.7,0008.94,0006.32,0005.88
2024-04-20 09:24:00,SystemResetWarning,0836.0,5.00,000.00,019.1,018.5,000.0,027.6,020.8,022.7,0001.0,0009.15,0006.36,0005.92
2024-04-20 09:25:00,SystemResetWarning,0835.9,5.00,000.00,019.1,018.5,000.0,027.6,020.8,022.7,0000.9,0009.19,0006.41,0005.97
2024-04-20 09:26:00,SystemResetWarning,0835.9,5.01,000.00,019.1,018.5,000.0,027.6,020.8,022.7,0001.2,0009.11,0006.42,0005.99
2024-04-20 09:27:00,SystemResetWarning,0835.9,5.00,000.00,019.1,018.5,000.0,027.6,020.8,022.7,0001.0,0009.17,0006.45,0006.04
2024-04-20 09:28:00,SystemResetWarning,0835.9,4.99,000.00,019.1,018.5,000.0,027.6,020.8,022.7,0001.1,0009.29,0006.50,0006.07
2024-04-20 09:29:00,SystemResetWarning,0835.9,4.99,000.00,019.1,018.5,000.0,027.5,020.8,022.7,0000.0,0009.31,0006.50,0006.08
2024-04-20 09:30:00,SystemResetWarning,0835.9,5.00,000.00,019.1,018.5,000.0,027.5,020.8,022.7,0000.0,0009.31,0006.50,0006.11
2024-04-20 09:31:00,SystemResetWarning,0836.0,5.01,000.00,019.1,018.5,000.0,027.5,020.8,022.7,0002.1,0009.32,0006.53,0006.15
2024-04-20 09:32:00,SystemResetWarning,0835.9,5.01,000.00,019.1,018.5,000.0,027.5,020.8,022.7,0001.2,0009.25,0006.56,0006.19
2024-04-20 09:33:00,SystemResetWarning,0835.9,4.99,000.00,019.1,018.5,000.0,027.5,020.8,022.7,0001.1,0009.37,0006.65,0006.24
2024-04-20 09:34:00,SystemResetWarning,0835.9,5.00,000.00,019.1,018.5,000.0,027.5,020.8,022.6,0000.3,0009.52,0006.72,0006.30
2024-04-20 09:35:00,SystemResetWarning,0835.9,4.99,000.00,019.1,018.5,000.0,027.5,020.8,022.6,0002.0,0009.37,0006.75,0006.34
2024-04-20 09:36:00,SystemResetWarning,0835.9,5.00,000.00,019.1,018.5,000.0,027.5,020.8,022.6,0002.1,0009.45,0006.82,0006.39
2024-04-20 09:37:00,SystemResetWarning,0835.9,5.00,000.00,019.1,018.5,000.0,027.5,020.8,022.6,0002.7,0009.47,0006.85,0006.43
2024-04-20 09:38:00,SystemResetWarning,0835.9,5.01,000.00,019.1,018.5,000.0,027.5,020.8,022.6,0001.1,0009.47,0006.89,0006.45
2024-04-20 09:39:00,SystemResetWarning,0835.8,5.01,000.00,019.1,018.5,000.0,027.5,020.8,022.6,0000.0,0009.47,0006.90,0006.46
2024-04-20 09:40:00,SystemResetWarning,0835.8,5.00,000.00,019.1,018.5,000.0,027.5,020.8,022.6,0000.0,0009.47,0006.92,0006.49
2024-04-20 09:41:00,SystemResetWarning,0835.8,4.99,000.00,019.1,018.5,000.0,027.5,020.8,023.3,0000.0,0009.54,0006.97,0006.51
2024-04-20 09:42:00,SystemResetWarning,0835.8,5.00,000.00,019.1,018.5,000.0,027.5,020.8,023.7,0000.0,0009.57,0006.98,0006.52
2024-04-20 09:43:00,SystemResetWarning,0835.8,5.00,000.00,019.1,018.5,000.0,027.5,020.8,023.0,0000.0,0009.61,0007.00,0006.53
2024-04-20 09:44:00,SystemResetWarning,0835.9,5.01,000.00,019.1,018.5,000.0,027.5,020.8,022.8,0000.0,0009.51,0006.96,0006.53
2024-04-20 09:45:00,SystemResetWarning,0835.9,5.01,000.00,019.1,018.5,000.0,027.6,020.8,022.7,0000.0,0009.41,0006.95,0006.53
2024-04-20 09:46:00,SystemResetWarning,0836.0,4.99,000.00,019.1,018.5,000.0,027.5,020.8,022.7,0000.0,0009.35,0006.93,0006.52
2024-04-20 09:47:00,SystemResetWarning,0836.0,4.99,000.00,019.1,018.5,000.0,027.5,020.8,022.7,0000.0,0009.33,0006.91,0006.50
2024-04-20 09:48:00,SystemResetWarning,0836.0,5.00,000.00,019.1,018.5,000.0,027.5,020.8,022.7,0000.0,0009.39,0006.91,0006.49
2024-04-20 09:49:00,SystemResetWarning,0836.0,5.01,000.00,019.1,018.5,000.0,027.5,020.8,022.7,0000.0,0009.37,0006.90,0006.48
2024-04-20 09:50:00,SystemResetWarning,0836.0,5.00,000.00,019.1,018.5,000.0,027.5,020.8,022.7,0000.0,0009.31,0006.88,0006.50
2024-04-20 09:51:00,SystemResetWarning,0836.0,4.99,000.00,019.1,018.5,000.0,027.5,020.8,022.7,0000.0,0009.30,0006.89,0006.50
2024-04-20 09:52:00,SystemResetWarning,0835.9,5.00,000.00,019.1,018.5,000.0,027.5,020.8,022.7,0000.0,0009.18,0006.85,0006.49
2024-04-20 09:53:00,SystemResetWarning,0835.9,4.99,000.00,019.1,018.5,000.0,027.6,020.8,022.7,0000.0,0009.20,0006.88,0006.51
2024-04-20 09:54:00,SystemResetWarning,0835.9,4.99,000.00,019.1,018.5,000.0,027.6,020.8,022.7,0000.0,0009.28,0006.92,0006.53
2024-04-20 09:55:00,SystemResetWarning,0835.9,4.99,000.00,019.1,018.6,000.0,027.6,020.8,022.6,0000.0,0009.34,0006.95,0006.54
2024-04-20 09:56:00,SystemResetWarning,0835.8,5.01,000.00,019.1,018.6,000.0,027.6,020.8,022.6,0000.0,0009.33,0006.94,0006.54
2024-04-20 09:57:00,SystemResetWarning,0835.8,5.01,000.00,019.1,018.6,000.0,027.6,020.8,022.6,0000.0,0009.36,0006.95,0006.53
2024-04-20 09:58:00,SystemResetWarning,0835.8,5.01,000.00,019.1,018.6,000.0,027.6,020.8,022.6,0000.0,0009.46,0006.98,0006.54
2024-04-20 09:59:00,SystemResetWarning,0835.8,4.99,000.00,019.1,018.6,000.0,027.6,020.8,022.6,0000.0,0009.42,0006.97,0006.55
